This is the latest recevied weather packets stored in our database for station/object LA4GY-1. If no packets are shown the sender has not sent any weather packets the latest 10 day(s).
| Time | Temp. | Humidity | Pressure | Rain* | Wind** | Luminosity | Snow |
|---|---|---|---|---|---|---|---|
| 1787907806 | 17.78° C | 72% | 1018 hPa | 0 mm | - | - | - |
| 1787907206 | 17.78° C | 70% | 1018.1 hPa | 0 mm | - | - | - |
| 1787906606 | 17.22° C | 73% | 1018 hPa | 0 mm | - | - | - |
| 1787906006 | 16.11° C | 73% | 1018.1 hPa | 0 mm | - | - | - |
| 1787905406 | 15.56° C | 76% | 1018.3 hPa | 0 mm | - | - | - |
| 1787904806 | 15° C | 80% | 1018.4 hPa | 0 mm | - | - | - |
| 1787904206 | 15° C | 79% | 1018.5 hPa | 0 mm | - | - | - |
| 1787903606 | 14.44° C | 82% | 1018.5 hPa | 0 mm | - | - | - |
| 1787903006 | 13.89° C | 83% | 1018.5 hPa | 0 mm | - | - | - |
| 1787902406 | 13.89° C | 82% | 1018.4 hPa | 0 mm | - | - | - |
| 1787901806 | 13.89° C | 83% | 1018.5 hPa | 0 mm | - | - | - |
| 1787901205 | 13.89° C | 84% | 1018.6 hPa | 0 mm | - | - | - |
| 1787900605 | 13.89° C | 83% | 1018.7 hPa | 0 mm | - | - | - |
| 1787900005 | 14.44° C | 83% | 1018.8 hPa | 0 mm | - | - | - |
| 1787899405 | 14.44° C | 83% | 1018.7 hPa | 0 mm | - | - | - |
| 1787898805 | 13.89° C | 85% | 1018.8 hPa | 0 mm | - | - | - |
| 1787898205 | 13.89° C | 84% | 1018.9 hPa | 0 mm | - | - | - |
| 1787897605 | 13.33° C | 83% | 1019.2 hPa | 0 mm | - | - | - |
| 1787897005 | 13.33° C | 83% | 1019.2 hPa | 0 mm | - | - | - |
| 1787896405 | 13.33° C | 85% | 1019.3 hPa | 0 mm | - | - | - |
| 1787895805 | 12.78° C | 86% | 1019.4 hPa | 0 mm | - | - | - |
| 1787895205 | 12.78° C | 87% | 1019.4 hPa | 0 mm | - | - | - |
| 1787894605 | 12.22° C | 89% | 1019.3 hPa | 0 mm | - | - | - |
| 1787894005 | 12.22° C | 89% | 1019.4 hPa | 0 mm | - | - | - |
| 1787893405 | 11.67° C | 88% | 1019.4 hPa | 0 mm | - | - | - |
* Rain latest hour (hover to see other rain measurements)
** Current wind speed in m/s (hover to see current wind gust speed)